Other Surface Observations
Issued by NWS Tucson, AZ

Home | Current Version | Previous Version | Text Only | Print | Product List | Glossary On
Versions: 1 2 3 4 5 6 7 8 9 10 11 12 13 14 15 16 17 18 19 20 21 22 23 24 25 26 27 28 29 30 31 32 33 34 35 36 37 38 39 40 41 42 43 44 45 46 47 48 49 50
000
SXUS55 KTWC 171915
OSOTWC

WEATHER ROUNDUP FOR SOUTHEAST ARIZONA
NATIONAL WEATHER SERVICE TUCSON AZ
1215 PM MST THU APR 17 2014

AZZ504>506-514-172015-
LOCATION       SKY/WX    TMP DP  RH WIND       PRES   REMARKS
TUCSON         SUNNY     83  17   8 CALM      29.97F
DAVIS-MONTHAN  SUNNY     83  21  10 NW5       29.96F
CHILDRENS PARK N/A       83 N/A N/A SW4               PIMA CO DEQ
ALVERNON/22ND  N/A       85 N/A N/A SE3               PIMA CO DEQ
CHERRY/GLENN   N/A      N/A N/A N/A N/A               PIMA CO DEQ
TANGERINE      N/A       83 N/A N/A S5                PIMA CO DEQ
CONTL RANCH    N/A       86  23  10 SE4               PIMA CO DEQ
GRANT/1ST      N/A       83  23  11 S3                PIMA CO DEQ
CRAYCROFT/22ND N/A       82  23  11 SW4               PIMA CO DEQ
GOLFLINKS/KOLB N/A      N/A N/A N/A N/A               PIMA CO DEQ
AJO/12TH       N/A       84  23  11 S6                PIMA CO DEQ
SAGUARO EAST   N/A       83  23  11 W3                PIMA CO DEQ
FAIRGROUNDS    N/A       83 N/A N/A SE4               PIMA CO DEQ
SAGUARO        N/A       85  27  12 SW5G10            *SABINO CYN
SAN CARLOS     N/A       82  20  10 S4                *SAN CARLOS
GREEN VALLEY   N/A       82  23  11 E2                PIMA CO DEQ
HORSE CAMP CYN N/A       77  18  11 SW4G13            *ARAVAIPA CYN
RINCON MTNS    N/A       64  18  17 SW3G12            *NR MANNING CAMP
$$

AZZ509>511-172015-
LOCATION       SKY/WX    TMP DP  RH WIND       PRES   REMARKS
SAFFORD        SUNNY     80  16   9 VRB3      29.98F
STRAY HORSE    N/A       66  19  16 SE5G11            *
TRAIL CABIN    N/A       70  17  13 NW5G10            *N OF GRANVILLE
BLACK HILLS    N/A       82  18   9 SE3G14            *N OF FT THOMAS
DRY LAKE       N/A       66  15  14 N5G10             *NATANES MTNS
NOON CREEK     N/A       77  18  11 NE5G12            *PINALENO MTNS
COLUMBINE      N/A       57  16  20 W4G12             *PINALENO MTNS
GUTHRIE        N/A       67  16  14 S8G13             *SW OF GUTHRIE
$$

AZZ502-503-513-172015-
LOCATION       SKY/WX    TMP DP  RH WIND       PRES   REMARKS
NOGALES        SUNNY     80  21  11 VRB6G16   30.01F
SELLS          N/A       85  22  10 S8G17             *
SASABE         N/A       82  20  10 SE5G15            *ALTAR VLY
HOPKINS        N/A       67  19  16 E14G20            *SANTA RITA MTNS
CARR CYN       N/A       74  22  14 NE4G10            *W OF HEREFORD
$$

AZZ507-508-512-172015-
LOCATION       SKY/WX    TMP DP  RH WIND       PRES   REMARKS
SIERRA VISTA   SUNNY     79  18  10 SE12      30.07F
DOUGLAS        SUNNY     78  18  10 E8        30.06F
EMPIRE MTNS    N/A       78  19  11 S7G16             *LAS CIENEGAS NCA
MULESHOE RANCH N/A       77  20  12 SW5G14            *PRESERVE
HEADQUARTERS   N/A       75  19  12 NW5G13            *CHIRICAHUA MTNS
$$

.............................NOTES.............................
THIS IS AN AUTOMATED COLLECTIVE WITH MINIMAL QUALITY CONTROL.
PIMA CO DEQ SITES HAVE NONSTANDARD WIND SENSOR HEIGHTS.
PIMA CO DEQ SITES DO NOT REPORT WIND GUSTS.
* INDICATES WIND SENSORS LOCATED AT 20 FEET INSTEAD OF 33 FEET.
..............................KEY..............................
SKY/WX - SKY CONDITION/WEATHER
TMP    - TEMPERATURE IN FAHRENHEIT
DP     - DEWPOINT IN FAHRENHEIT
RH     - RELATIVE HUMIDITY IN PERCENT
WIND   - DIRECTION AND SPEED IN MILES PER HOUR (MPH)
VRB    - VARIABLE WIND DIRECTION
PRES   - MEAN SEA LEVEL PRESSURE IN INCHES OF MERCURY
         F - FALLING PRESSURE   R - RISING PRESSURE
         S - STEADY PRESSURE
VSB    - VISIBILITY IN MILES
HX     - HEAT INDEX IN FAHRENHEIT
WCI    - WIND CHILL INDEX IN FAHRENHEIT
N/A    - NOT AVAILABLE
AFB    - AIR FORCE BASE
         DAVIS-MONTHAN IS DAVIS-MONTHAN AIR FORCE BASE
CYN    - CANYON
MTNS   - MOUNTAINS
NCA    - NATIONAL CONSERVATION AREA
NR     - NEAR
VLY    - VALLEY
CONTL  - CONTINENTAL
PIMA CO DEQ - PIMA COUNTY DEPT OF ENVIRONMENTAL QUALITY



USA.gov is the U.S. government's official web portal to all federal, state and local government web resources and services.